Hourly Data Report for September 30, 2017

All times are specified in Local Standard Time (LST). Add 1 hour to adjust for Daylight Saving Time where and when it is observed.

NORTH CAPE
PRINCE EDWARD ISLAND

47°03'29.000" N
63°59'55.000" W
7.60 m
8300516
71987
WNE

Download Data

Hourly Data (September 2017)
Hourly Data Report for September 30, 2017
Temp Definition
°C
Dew Point Temp Definition
°C
Rel Hum Definition
%
Wind Dir Definition
10's deg

Wind Spd Definition
km/h
Visibility Definition
km
Stn Press Definition
kPa
Hmdx Definition


Wind Chill Definition


Weather Definition


TIME
00:00 9.8 4.1 67 35 28   101.67     LegendNANA
01:00 9.6 4.7 72 36 29   101.70     LegendNANA
02:00 9.6 3.9 68 1 28   101.74     LegendNANA
03:00 9.8 4.0 67 2 28   101.77     LegendNANA
04:00 9.6 5.1 74 36 30   101.83     LegendNANA
05:00 9.3 3.8 69 1 25   101.89     LegendNANA
06:00 9.3 2.8 64 2 23   101.98     LegendNANA
07:00 9.3 3.7 68 2 23   102.07     LegendNANA
08:00 9.3 2.8 64 1 28   102.13     LegendNANA
09:00 9.7 2.2 59 36 22   102.21     LegendNANA
10:00 9.2 1.9 60 35 21   102.25     LegendNANA
11:00 9.1 1.1 57 34 20   102.29     LegendNANA
12:00 10.1 2.7 60 35 19   102.31     LegendNANA
13:00 10.2 1.9 56 35 17   102.29     LegendNANA
14:00 9.9 2.1 58 34 14   102.29     LegendNANA
15:00 10.4 1.7 55 1 9   102.28     LegendNANA
16:00 10.0 1.2 54 32 9   102.26     LegendNANA
17:00 9.6 0.6 54 29 8   102.26     LegendNANA
18:00 8.4 0.5 57 33 7   102.27     LegendNANA
19:00 8.3 0.9 60 27 5   102.28     LegendNANA
20:00 3.9 -0.4 74 20 12   102.30     LegendNANA
21:00 4.1 0.0 75 19 15   102.28     LegendNANA
22:00 4.6 0.2 73 20 16   102.24     LegendNANA
23:00 5.9 1.2 72 21 17   102.20     LegendNANA

Notes on Data Quality.

Legend

  • E = Estimated
  • M = Missing
  • NA = Not Available
  • ‡ = Partner data that is not subject to review by the National Climate Archives
Date modified: